Time,TemperatureF,DewpointF,PressureIn,WindDirection,WindDirectionDegrees,WindSpeedMPH,WindSpeedGustMPH,Humidity,HourlyPrecipIn,Conditions,Clouds,dailyrainin,SoftwareType,DateUTC
2014-02-26 00:00:00,28.9,19.3,29.77,West,270,0.0,0.0,56,0.00,,,0.01,fowsr,2014-02-26 05:00:00,
2014-02-26 00:05:00,28.6,19.2,29.77,West,270,0.0,0.0,57,0.00,,,0.01,fowsr,2014-02-26 05:05:00,
2014-02-26 00:10:00,28.4,19.0,29.77,West,270,0.0,0.0,57,0.00,,,0.01,fowsr,2014-02-26 05:10:00,
2014-02-26 00:15:00,28.0,18.1,29.77,South,180,0.0,0.0,55,0.00,,,0.01,fowsr,2014-02-26 05:15:00,
2014-02-26 00:20:00,27.9,18.0,29.77,South,180,0.0,0.0,55,0.00,,,0.01,fowsr,2014-02-26 05:20:00,
2014-02-26 00:25:00,27.7,17.8,29.77,East,90,0.0,0.7,55,0.00,,,0.01,fowsr,2014-02-26 05:25:00,
2014-02-26 00:30:00,27.5,17.9,29.77,South,180,0.0,1.6,56,0.00,,,0.01,fowsr,2014-02-26 05:30:00,
2014-02-26 00:35:00,27.7,18.1,29.77,SW,225,0.0,0.0,56,0.00,,,0.01,fowsr,2014-02-26 05:35:00,
2014-02-26 00:40:00,27.9,18.0,29.77,SW,225,0.0,0.7,55,0.00,,,0.01,fowsr,2014-02-26 05:40:00,
2014-02-26 00:45:00,27.9,18.0,29.77,West,270,0.0,1.6,55,0.00,,,0.01,fowsr,2014-02-26 05:45:00,
2014-02-26 00:50:00,27.9,18.0,29.77,SW,225,0.0,1.6,55,0.00,,,0.01,fowsr,2014-02-26 05:50:00,
2014-02-26 00:55:00,27.7,18.1,29.77,SW,225,0.0,0.7,56,0.00,,,0.01,fowsr,2014-02-26 05:55:00,
2014-02-26 01:00:00,27.5,17.9,29.77,SW,225,0.0,0.0,56,0.00,,,0.01,fowsr,2014-02-26 06:00:00,
2014-02-26 01:05:00,27.3,18.0,29.77,West,270,0.0,0.7,57,0.00,,,0.01,fowsr,2014-02-26 06:05:00,
2014-02-26 01:10:00,27.1,17.9,29.77,West,270,0.0,0.0,57,0.00,,,0.01,fowsr,2014-02-26 06:10:00,
2014-02-26 01:15:00,27.0,18.3,29.77,West,270,0.0,0.0,59,0.00,,,0.01,fowsr,2014-02-26 06:15:00,
2014-02-26 01:25:00,26.8,18.4,29.77,SW,225,0.0,0.0,60,0.00,,,0.01,fowsr,2014-02-26 06:25:00,
2014-02-26 01:30:00,26.8,18.4,29.77,SW,225,0.0,0.0,60,0.00,,,0.01,fowsr,2014-02-26 06:30:00,
2014-02-26 01:35:00,26.6,18.4,29.77,West,270,0.0,1.6,61,0.00,,,0.01,fowsr,2014-02-26 06:35:00,
2014-02-26 01:40:00,26.6,18.4,29.77,North,0,0.0,0.0,61,0.00,,,0.01,fowsr,2014-02-26 06:40:00,
2014-02-26 01:45:00,26.6,18.7,29.77,North,0,0.0,0.0,62,0.00,,,0.01,fowsr,2014-02-26 06:45:00,
2014-02-26 01:50:00,26.4,18.8,29.77,West,270,0.0,0.7,63,0.00,,,0.01,fowsr,2014-02-26 06:50:00,
2014-02-26 01:55:00,26.4,18.8,29.77,West,270,0.0,0.0,63,0.00,,,0.01,fowsr,2014-02-26 06:55:00,
2014-02-26 02:00:00,26.4,19.0,29.77,West,270,0.0,0.0,64,0.00,,,0.01,fowsr,2014-02-26 07:00:00,
2014-02-26 02:05:00,26.4,19.0,29.76,West,270,0.0,0.0,64,0.00,,,0.01,fowsr,2014-02-26 07:05:00,
2014-02-26 02:15:00,26.1,19.0,29.76,West,270,0.0,0.0,65,0.00,,,0.01,fowsr,2014-02-26 07:15:00,
2014-02-26 02:20:00,26.1,19.0,29.76,West,270,0.0,0.0,65,0.00,,,0.01,fowsr,2014-02-26 07:20:00,
2014-02-26 02:25:00,26.1,19.2,29.76,West,270,0.0,0.0,66,0.00,,,0.01,fowsr,2014-02-26 07:25:00,
2014-02-26 02:30:00,25.9,19.0,29.76,West,270,0.0,0.0,66,0.00,,,0.01,fowsr,2014-02-26 07:30:00,
2014-02-26 02:35:00,25.7,18.9,29.76,West,270,0.0,0.0,66,0.00,,,0.01,fowsr,2014-02-26 07:35:00,
2014-02-26 02:40:00,25.5,18.9,29.75,West,270,0.0,0.0,67,0.00,,,0.01,fowsr,2014-02-26 07:40:00,
2014-02-26 02:45:00,25.5,18.9,29.75,SW,225,0.0,0.7,67,0.00,,,0.01,fowsr,2014-02-26 07:45:00,
2014-02-26 02:50:00,25.5,18.9,29.75,SW,225,0.0,0.0,67,0.00,,,0.01,fowsr,2014-02-26 07:50:00,
2014-02-26 02:55:00,25.3,18.8,29.74,South,180,0.7,1.6,67,0.00,,,0.01,fowsr,2014-02-26 07:55:00,
2014-02-26 03:00:00,25.3,19.0,29.74,South,180,0.0,0.0,68,0.00,,,0.01,fowsr,2014-02-26 08:00:00,
2014-02-26 03:05:00,25.3,19.0,29.74,South,180,0.0,0.0,68,0.00,,,0.01,fowsr,2014-02-26 08:05:00,
2014-02-26 03:10:00,25.2,18.8,29.74,SW,225,0.7,1.6,68,0.00,,,0.01,fowsr,2014-02-26 08:10:00,
2014-02-26 03:15:00,25.3,19.2,29.74,SW,225,0.0,0.0,69,0.00,,,0.01,fowsr,2014-02-26 08:15:00,
2014-02-26 03:20:00,25.3,19.5,29.73,SW,225,0.0,0.0,70,0.00,,,0.01,fowsr,2014-02-26 08:20:00,
2014-02-26 03:25:00,25.5,19.9,29.73,SW,225,0.0,0.0,71,0.00,,,0.01,fowsr,2014-02-26 08:25:00,
2014-02-26 03:30:00,25.5,19.9,29.72,SW,225,0.0,0.0,71,0.00,,,0.01,fowsr,2014-02-26 08:30:00,
2014-02-26 03:35:00,25.5,19.9,29.72,SW,225,0.0,1.6,71,0.00,,,0.01,fowsr,2014-02-26 08:35:00,
2014-02-26 03:40:00,25.7,20.0,29.72,SW,225,0.7,0.7,71,0.00,,,0.01,fowsr,2014-02-26 08:40:00,
2014-02-26 03:45:00,25.9,20.0,29.72,SW,225,0.0,0.0,70,0.00,,,0.01,fowsr,2014-02-26 08:45:00,
2014-02-26 03:50:00,26.1,20.2,29.71,SW,225,0.0,0.0,70,0.00,,,0.01,fowsr,2014-02-26 08:50:00,
2014-02-26 03:55:00,26.1,20.2,29.71,SW,225,0.0,0.7,70,0.00,,,0.01,fowsr,2014-02-26 08:55:00,
2014-02-26 04:00:00,26.2,20.1,29.71,SW,225,0.0,0.7,69,0.00,,,0.01,fowsr,2014-02-26 09:00:00,
2014-02-26 04:05:00,26.4,20.0,29.71,SW,225,0.7,0.7,68,0.00,,,0.01,fowsr,2014-02-26 09:05:00,
2014-02-26 04:10:00,26.6,19.7,29.70,West,270,0.0,0.7,66,0.00,,,0.01,fowsr,2014-02-26 09:10:00,
2014-02-26 04:15:00,26.8,19.4,29.70,SW,225,0.0,0.7,64,0.00,,,0.01,fowsr,2014-02-26 09:15:00,
2014-02-26 04:20:00,27.0,19.3,29.70,South,180,0.0,0.7,63,0.00,,,0.01,fowsr,2014-02-26 09:20:00,
2014-02-26 04:25:00,27.1,19.5,29.70,SW,225,0.0,0.7,63,0.00,,,0.01,fowsr,2014-02-26 09:25:00,
2014-02-26 04:30:00,27.1,19.2,29.70,South,180,0.7,2.2,62,0.00,,,0.01,fowsr,2014-02-26 09:30:00,
2014-02-26 04:35:00,27.3,19.1,29.70,West,270,0.0,0.0,61,0.00,,,0.01,fowsr,2014-02-26 09:35:00,
2014-02-26 04:40:00,27.3,19.1,29.70,West,270,0.7,1.6,61,0.00,,,0.01,fowsr,2014-02-26 09:40:00,
2014-02-26 04:45:00,27.5,19.0,29.70,West,270,0.0,0.0,60,0.00,,,0.01,fowsr,2014-02-26 09:45:00,
2014-02-26 04:50:00,27.5,18.8,29.70,West,270,0.0,0.7,59,0.00,,,0.01,fowsr,2014-02-26 09:50:00,
2014-02-26 04:55:00,27.7,18.7,29.70,West,270,0.0,0.0,58,0.00,,,0.01,fowsr,2014-02-26 09:55:00,
2014-02-26 05:00:00,27.7,18.7,29.70,NW,315,0.0,2.2,58,0.00,,,0.01,fowsr,2014-02-26 10:00:00,
2014-02-26 05:05:00,27.7,18.7,29.71,East,90,0.0,0.7,58,0.00,,,0.01,fowsr,2014-02-26 10:05:00,
2014-02-26 05:10:00,27.9,18.5,29.71,West,270,0.7,2.2,57,0.00,,,0.01,fowsr,2014-02-26 10:10:00,
2014-02-26 05:15:00,27.9,18.0,29.71,NW,315,0.7,0.7,55,0.00,,,0.01,fowsr,2014-02-26 10:15:00,
2014-02-26 05:20:00,28.0,17.8,29.71,NW,315,0.0,1.6,54,0.00,,,0.01,fowsr,2014-02-26 10:20:00,
2014-02-26 05:25:00,28.0,17.8,29.71,NW,315,0.0,0.0,54,0.00,,,0.01,fowsr,2014-02-26 10:25:00,
2014-02-26 05:30:00,28.0,18.1,29.71,NW,315,0.0,0.0,55,0.00,,,0.01,fowsr,2014-02-26 10:30:00,
2014-02-26 05:35:00,28.0,18.1,29.71,West,270,0.0,0.7,55,0.00,,,0.01,fowsr,2014-02-26 10:35:00,
2014-02-26 05:40:00,28.0,18.1,29.71,West,270,0.0,0.7,55,0.00,,,0.01,fowsr,2014-02-26 10:40:00,
2014-02-26 05:45:00,28.2,18.3,29.71,North,0,0.0,0.7,55,0.00,,,0.01,fowsr,2014-02-26 10:45:00,
2014-02-26 05:50:00,28.2,18.0,29.71,NW,315,0.0,0.0,54,0.00,,,0.01,fowsr,2014-02-26 10:50:00,
2014-02-26 05:55:00,28.4,19.6,29.71,North,0,0.0,0.0,59,0.00,,,0.01,fowsr,2014-02-26 10:55:00,
2014-02-26 06:00:00,28.4,19.6,29.70,NW,315,0.7,1.6,59,0.00,,,0.01,fowsr,2014-02-26 11:00:00,
2014-02-26 06:05:00,28.4,19.9,29.71,NW,315,0.0,0.7,60,0.00,,,0.01,fowsr,2014-02-26 11:05:00,
2014-02-26 06:10:00,28.4,20.1,29.70,NW,315,0.0,0.0,61,0.00,,,0.01,fowsr,2014-02-26 11:10:00,
2014-02-26 06:15:00,28.6,20.3,29.70,West,270,0.0,0.7,61,0.00,,,0.01,fowsr,2014-02-26 11:15:00,
2014-02-26 06:20:00,28.6,20.3,29.70,SE,135,0.0,0.7,61,0.00,,,0.01,fowsr,2014-02-26 11:20:00,
2014-02-26 06:25:00,28.6,20.3,29.70,SE,135,0.0,0.0,61,0.00,,,0.01,fowsr,2014-02-26 11:25:00,
2014-02-26 06:30:00,28.6,20.6,29.69,SE,135,0.0,0.0,62,0.00,,,0.01,fowsr,2014-02-26 11:30:00,
2014-02-26 06:40:00,28.6,20.6,29.69,SE,135,0.0,0.7,62,0.00,,,0.01,fowsr,2014-02-26 11:40:00,
2014-02-26 06:45:00,28.8,20.5,29.70,East,90,0.7,1.6,61,0.00,,,0.01,fowsr,2014-02-26 11:45:00,
2014-02-26 06:50:00,28.9,20.9,29.70,SE,135,1.6,3.1,62,0.00,,,0.01,fowsr,2014-02-26 11:50:00,
2014-02-26 06:55:00,28.9,21.2,29.70,NW,315,0.0,0.7,63,0.00,,,0.01,fowsr,2014-02-26 11:55:00,
2014-02-26 07:00:00,29.1,21.6,29.70,East,90,1.6,3.1,64,0.00,,,0.01,fowsr,2014-02-26 12:00:00,
2014-02-26 07:05:00,29.1,21.6,29.70,NE,45,0.7,1.6,64,0.00,,,0.01,fowsr,2014-02-26 12:05:00,
2014-02-26 07:10:00,29.1,21.9,29.70,NE,45,2.2,4.5,65,0.00,,,0.01,fowsr,2014-02-26 12:10:00,
2014-02-26 07:15:00,28.9,21.7,29.70,NE,45,1.6,3.1,65,0.00,,,0.01,fowsr,2014-02-26 12:15:00,
2014-02-26 07:20:00,28.9,21.9,29.70,East,90,0.7,2.2,66,0.00,,,0.01,fowsr,2014-02-26 12:20:00,
2014-02-26 07:25:00,28.9,21.9,29.71,NE,45,0.7,2.2,66,0.00,,,0.01,fowsr,2014-02-26 12:25:00,
2014-02-26 07:30:00,28.9,22.2,29.71,ESE,112,2.2,3.1,67,0.00,,,0.01,fowsr,2014-02-26 12:30:00,
2014-02-26 07:35:00,28.9,22.2,29.71,NE,45,0.7,1.6,67,0.00,,,0.01,fowsr,2014-02-26 12:35:00,
2014-02-26 07:40:00,28.9,22.4,29.71,North,0,2.2,3.1,68,0.00,,,0.01,fowsr,2014-02-26 12:40:00,
2014-02-26 07:45:00,28.8,22.5,29.71,East,90,1.6,3.1,69,0.00,,,0.01,fowsr,2014-02-26 12:45:00,
2014-02-26 07:50:00,28.8,22.7,29.72,East,90,2.2,3.1,70,0.00,,,0.01,fowsr,2014-02-26 12:50:00,
2014-02-26 07:55:00,28.8,23.0,29.72,NE,45,2.2,3.1,71,0.00,,,0.01,fowsr,2014-02-26 12:55:00,
2014-02-26 08:00:00,28.8,23.2,29.72,East,90,0.0,1.6,72,0.00,,,0.01,fowsr,2014-02-26 13:00:00,
2014-02-26 08:05:00,28.8,23.4,29.73,NE,45,2.2,4.5,73,0.00,,,0.01,fowsr,2014-02-26 13:05:00,
2014-02-26 08:10:00,28.8,23.7,29.73,North,0,2.2,3.8,74,0.00,,,0.01,fowsr,2014-02-26 13:10:00,
2014-02-26 08:15:00,28.8,23.9,29.73,East,90,0.0,1.6,75,0.00,,,0.01,fowsr,2014-02-26 13:15:00,
2014-02-26 08:20:00,28.8,23.9,29.73,East,90,2.2,3.8,75,0.00,,,0.01,fowsr,2014-02-26 13:20:00,
2014-02-26 08:25:00,28.8,24.1,29.73,East,90,2.2,3.8,76,0.00,,,0.01,fowsr,2014-02-26 13:25:00,
2014-02-26 08:30:00,28.8,24.1,29.73,NE,45,2.2,3.1,76,0.00,,,0.01,fowsr,2014-02-26 13:30:00,
2014-02-26 08:35:00,28.8,24.3,29.73,NE,45,1.6,2.2,77,0.00,,,0.01,fowsr,2014-02-26 13:35:00,
2014-02-26 08:40:00,28.9,24.5,29.74,East,90,3.1,3.8,77,0.00,,,0.01,fowsr,2014-02-26 13:40:00,
2014-02-26 08:45:00,29.1,24.9,29.74,East,90,3.1,6.0,78,0.00,,,0.01,fowsr,2014-02-26 13:45:00,
2014-02-26 08:50:00,29.3,25.3,29.74,ENE,67,2.2,3.8,79,0.00,,,0.01,fowsr,2014-02-26 13:50:00,
2014-02-26 08:55:00,29.5,25.4,29.74,NE,45,3.8,6.9,79,0.00,,,0.01,fowsr,2014-02-26 13:55:00,
2014-02-26 09:00:00,29.5,25.4,29.74,NE,45,3.8,6.0,79,0.00,,,0.01,fowsr,2014-02-26 14:00:00,
2014-02-26 09:05:00,29.5,25.4,29.74,North,0,3.1,5.4,79,0.00,,,0.01,fowsr,2014-02-26 14:05:00,
2014-02-26 09:10:00,29.7,25.6,29.75,NE,45,2.2,3.8,79,0.00,,,0.01,fowsr,2014-02-26 14:10:00,
2014-02-26 09:15:00,29.5,25.2,29.75,NE,45,2.2,3.8,78,0.00,,,0.01,fowsr,2014-02-26 14:15:00,
2014-02-26 09:20:00,29.7,25.4,29.75,East,90,2.2,3.1,78,0.00,,,0.01,fowsr,2014-02-26 14:20:00,
2014-02-26 09:25:00,29.5,25.2,29.75,East,90,3.1,6.9,78,0.00,,,0.01,fowsr,2014-02-26 14:25:00,
2014-02-26 09:30:00,29.5,25.2,29.75,NE,45,4.5,6.9,78,0.00,,,0.01,fowsr,2014-02-26 14:30:00,
2014-02-26 09:35:00,29.5,25.2,29.75,East,90,2.2,3.8,78,0.00,,,0.01,fowsr,2014-02-26 14:35:00,
2014-02-26 09:40:00,29.5,25.2,29.75,North,0,3.1,6.0,78,0.00,,,0.01,fowsr,2014-02-26 14:40:00,
2014-02-26 09:45:00,29.5,25.2,29.75,NE,45,1.6,3.1,78,0.00,,,0.01,fowsr,2014-02-26 14:45:00,
2014-02-26 09:50:00,29.5,25.2,29.75,NE,45,2.2,3.8,78,0.00,,,0.01,fowsr,2014-02-26 14:50:00,
2014-02-26 09:55:00,29.5,25.2,29.75,North,0,3.8,5.4,78,0.00,,,0.01,fowsr,2014-02-26 14:55:00,
2014-02-26 10:00:00,29.3,25.1,29.75,NE,45,3.8,6.0,78,0.00,,,0.01,fowsr,2014-02-26 15:00:00,
2014-02-26 10:05:00,29.3,25.1,29.75,East,90,3.1,3.8,78,0.00,,,0.01,fowsr,2014-02-26 15:05:00,
2014-02-26 10:10:00,29.3,25.1,29.74,NE,45,2.2,5.4,78,0.00,,,0.01,fowsr,2014-02-26 15:10:00,
2014-02-26 10:15:00,29.5,25.4,29.74,East,90,3.8,6.0,79,0.00,,,0.01,fowsr,2014-02-26 15:15:00,
2014-02-26 10:20:00,29.5,25.4,29.74,East,90,6.0,7.6,79,0.00,,,0.01,fowsr,2014-02-26 15:20:00,
2014-02-26 10:25:00,29.7,25.6,29.74,North,0,3.1,5.4,79,0.00,,,0.01,fowsr,2014-02-26 15:25:00,
2014-02-26 10:30:00,29.7,25.6,29.74,SE,135,4.5,9.2,79,0.00,,,0.01,fowsr,2014-02-26 15:30:00,
2014-02-26 10:35:00,29.8,25.8,29.74,WNW,292,3.8,6.9,79,0.00,,,0.01,fowsr,2014-02-26 15:35:00,
2014-02-26 10:40:00,30.0,26.0,29.73,East,90,5.4,7.6,79,0.00,,,0.01,fowsr,2014-02-26 15:40:00,
2014-02-26 10:45:00,30.0,25.8,29.73,East,90,1.6,2.2,78,0.00,,,0.01,fowsr,2014-02-26 15:45:00,
2014-02-26 10:50:00,30.4,25.9,29.73,NE,45,2.2,5.4,77,0.00,,,0.01,fowsr,2014-02-26 15:50:00,
2014-02-26 10:55:00,30.6,26.1,29.73,SE,135,3.8,5.4,77,0.00,,,0.01,fowsr,2014-02-26 15:55:00,
2014-02-26 11:00:00,30.6,26.1,29.73,East,90,3.8,6.9,77,0.00,,,0.01,fowsr,2014-02-26 16:00:00,
2014-02-26 11:05:00,30.6,25.8,29.72,East,90,6.0,9.8,76,0.00,,,0.01,fowsr,2014-02-26 16:05:00,
2014-02-26 11:10:00,30.6,25.8,29.72,North,0,3.1,6.0,76,0.00,,,0.01,fowsr,2014-02-26 16:10:00,
2014-02-26 11:15:00,30.6,26.1,29.72,East,90,3.8,4.5,77,0.00,,,0.01,fowsr,2014-02-26 16:15:00,
2014-02-26 11:20:00,30.9,26.4,29.72,East,90,1.6,2.2,77,0.01,,,0.02,fowsr,2014-02-26 16:20:00,
2014-02-26 11:25:00,30.9,26.4,29.71,NE,45,6.9,9.8,77,0.01,,,0.02,fowsr,2014-02-26 16:25:00,
2014-02-26 11:30:00,30.7,26.0,29.71,NE,45,6.0,8.3,76,0.01,,,0.02,fowsr,2014-02-26 16:30:00,
2014-02-26 11:35:00,30.6,25.8,29.71,East,90,2.2,5.4,76,0.01,,,0.02,fowsr,2014-02-26 16:35:00,
2014-02-26 11:40:00,30.7,26.4,29.70,SE,135,3.8,5.4,78,0.01,,,0.02,fowsr,2014-02-26 16:40:00,
2014-02-26 11:45:00,31.3,27.2,29.70,NE,45,3.1,4.5,79,0.01,,,0.02,fowsr,2014-02-26 16:45:00,
2014-02-26 11:50:00,31.6,27.5,29.69,East,90,3.8,5.4,79,0.01,,,0.02,fowsr,2014-02-26 16:50:00,
2014-02-26 11:55:00,31.5,27.4,29.69,East,90,2.2,3.8,79,0.01,,,0.02,fowsr,2014-02-26 16:55:00,
2014-02-26 12:05:00,31.3,27.0,29.69,East,90,3.1,7.6,78,0.01,,,0.02,fowsr,2014-02-26 17:05:00,
2014-02-26 12:10:00,31.6,27.5,29.68,NE,45,5.4,6.9,79,0.01,,,0.02,fowsr,2014-02-26 17:10:00,
2014-02-26 12:15:00,32.0,27.7,29.68,East,90,4.5,6.9,78,0.01,,,0.02,fowsr,2014-02-26 17:15:00,
2014-02-26 12:20:00,32.0,27.7,29.68,SE,135,3.1,4.5,78,0.01,,,0.02,fowsr,2014-02-26 17:20:00,
2014-02-26 12:25:00,32.0,27.4,29.68,East,90,5.4,9.8,77,0.00,,,0.02,fowsr,2014-02-26 17:25:00,
2014-02-26 12:30:00,31.8,27.5,29.67,ESE,112,5.4,8.3,78,0.00,,,0.02,fowsr,2014-02-26 17:30:00,
2014-02-26 12:35:00,31.8,27.3,29.67,East,90,7.6,10.7,77,0.00,,,0.02,fowsr,2014-02-26 17:35:00,
2014-02-26 12:40:00,32.2,27.4,29.67,SE,135,3.8,6.0,76,0.00,,,0.02,fowsr,2014-02-26 17:40:00,
2014-02-26 12:45:00,32.7,28.1,29.66,East,90,6.9,9.8,77,0.00,,,0.02,fowsr,2014-02-26 17:45:00,
2014-02-26 12:55:00,32.7,27.9,29.66,East,90,5.4,8.3,76,0.00,,,0.02,fowsr,2014-02-26 17:55:00,
2014-02-26 13:00:00,32.5,27.7,29.66,East,90,3.1,4.5,76,0.00,,,0.02,fowsr,2014-02-26 18:00:00,
2014-02-26 13:05:00,32.9,28.1,29.65,SE,135,5.4,8.3,76,0.00,,,0.02,fowsr,2014-02-26 18:05:00,
2014-02-26 13:10:00,32.9,27.9,29.65,NE,45,3.8,6.9,75,0.00,,,0.02,fowsr,2014-02-26 18:10:00,
2014-02-26 13:15:00,32.7,27.5,29.64,NE,45,5.4,7.6,74,0.00,,,0.02,fowsr,2014-02-26 18:15:00,
2014-02-26 13:20:00,32.7,27.5,29.64,SE,135,3.8,9.2,74,0.00,,,0.02,fowsr,2014-02-26 18:20:00,
2014-02-26 13:25:00,32.7,27.2,29.64,East,90,7.6,9.8,73,0.00,,,0.02,fowsr,2014-02-26 18:25:00,
2014-02-26 13:30:00,32.2,26.5,29.63,East,90,3.1,4.5,72,0.00,,,0.02,fowsr,2014-02-26 18:30:00,
2014-02-26 13:35:00,31.8,26.6,29.63,SE,135,3.1,4.5,74,0.00,,,0.02,fowsr,2014-02-26 18:35:00,
2014-02-26 13:40:00,31.5,26.7,29.64,East,90,3.1,4.5,76,0.00,,,0.02,fowsr,2014-02-26 18:40:00,
2014-02-26 13:45:00,30.9,26.6,29.64,SE,135,3.1,6.9,78,0.00,,,0.02,fowsr,2014-02-26 18:45:00,
2014-02-26 13:50:00,30.6,26.5,29.63,South,180,3.1,8.3,79,0.00,,,0.01,fowsr,2014-02-26 18:50:00,
2014-02-26 13:55:00,30.6,26.9,29.63,NW,315,1.6,2.2,81,0.00,,,0.01,fowsr,2014-02-26 18:55:00,
2014-02-26 14:00:00,31.3,27.8,29.63,South,180,2.2,3.1,82,0.00,,,0.01,fowsr,2014-02-26 19:00:00,
2014-02-26 14:05:00,32.4,28.7,29.63,East,90,2.2,3.8,81,0.00,,,0.01,fowsr,2014-02-26 19:05:00,
2014-02-26 14:10:00,33.3,28.7,29.63,SW,225,3.1,5.4,77,0.00,,,0.01,fowsr,2014-02-26 19:10:00,
2014-02-26 14:15:00,34.3,28.5,29.62,SE,135,3.1,4.5,72,0.00,,,0.01,fowsr,2014-02-26 19:15:00,
2014-02-26 14:20:00,35.1,27.7,29.62,East,90,3.8,6.0,66,0.00,,,0.01,fowsr,2014-02-26 19:20:00,
2014-02-26 14:25:00,35.8,28.2,29.62,South,180,3.1,5.4,65,0.00,,,0.01,fowsr,2014-02-26 19:25:00,
2014-02-26 14:35:00,34.3,24.9,29.62,South,180,3.1,5.4,58,0.00,,,0.01,fowsr,2014-02-26 19:35:00,
2014-02-26 14:40:00,34.0,24.8,29.62,WNW,292,2.2,5.4,59,0.00,,,0.01,fowsr,2014-02-26 19:40:00,
2014-02-26 14:45:00,34.5,25.6,29.62,NE,45,3.1,5.4,60,0.01,,,0.02,fowsr,2014-02-26 19:45:00,
2014-02-26 14:50:00,34.2,24.4,29.62,East,90,2.2,4.5,57,0.01,,,0.02,fowsr,2014-02-26 19:50:00,
2014-02-26 14:55:00,33.4,23.7,29.62,South,180,3.1,4.5,57,0.01,,,0.02,fowsr,2014-02-26 19:55:00,
2014-02-26 15:00:00,33.4,23.7,29.61,SE,135,3.1,6.0,57,0.01,,,0.02,fowsr,2014-02-26 20:00:00,
2014-02-26 15:05:00,33.6,23.6,29.61,East,90,3.1,6.0,56,0.01,,,0.02,fowsr,2014-02-26 20:05:00,
2014-02-26 15:10:00,33.4,22.8,29.61,East,90,3.8,7.6,54,0.01,,,0.02,fowsr,2014-02-26 20:10:00,
2014-02-26 15:15:00,33.3,22.4,29.61,SE,135,3.1,6.0,53,0.01,,,0.02,fowsr,2014-02-26 20:15:00,
2014-02-26 15:20:00,33.6,22.1,29.61,East,90,2.2,6.9,51,0.01,,,0.02,fowsr,2014-02-26 20:20:00,
2014-02-26 15:25:00,33.6,21.7,29.62,NE,45,5.4,13.6,50,0.01,,,0.02,fowsr,2014-02-26 20:25:00,
2014-02-26 15:30:00,33.8,21.9,29.61,NW,315,4.5,6.9,50,0.01,,,0.02,fowsr,2014-02-26 20:30:00,
2014-02-26 15:35:00,34.0,21.7,29.61,South,180,3.1,7.6,49,0.01,,,0.02,fowsr,2014-02-26 20:35:00,
2014-02-26 15:40:00,34.3,22.1,29.61,East,90,1.6,3.1,49,0.01,,,0.02,fowsr,2014-02-26 20:40:00,
2014-02-26 15:45:00,34.5,22.2,29.61,ENE,67,5.4,11.4,49,0.01,,,0.02,fowsr,2014-02-26 20:45:00,
2014-02-26 15:50:00,34.2,21.2,29.61,East,90,5.4,9.2,47,0.00,,,0.02,fowsr,2014-02-26 20:50:00,
2014-02-26 15:55:00,34.2,20.9,29.61,NW,315,3.1,4.5,46,0.00,,,0.02,fowsr,2014-02-26 20:55:00,
2014-02-26 16:00:00,34.5,20.8,29.61,SE,135,4.5,8.3,45,0.00,,,0.02,fowsr,2014-02-26 21:00:00,
2014-02-26 16:05:00,34.2,20.5,29.61,SE,135,2.2,3.8,45,0.00,,,0.02,fowsr,2014-02-26 21:05:00,
2014-02-26 16:10:00,34.5,20.8,29.61,North,0,4.5,6.9,45,0.00,,,0.02,fowsr,2014-02-26 21:10:00,
2014-02-26 16:15:00,34.7,20.3,29.61,SW,225,2.2,6.9,43,0.00,,,0.02,fowsr,2014-02-26 21:15:00,
2014-02-26 16:20:00,34.7,19.9,29.61,East,90,3.8,6.0,42,0.00,,,0.02,fowsr,2014-02-26 21:20:00,
2014-02-26 16:25:00,34.9,20.8,29.61,South,180,5.4,9.2,44,0.00,,,0.02,fowsr,2014-02-26 21:25:00,
2014-02-26 16:30:00,34.7,19.9,29.60,SSW,202,3.1,4.5,42,0.00,,,0.02,fowsr,2014-02-26 21:30:00,
2014-02-26 16:35:00,34.5,19.7,29.61,South,180,2.2,4.5,42,0.00,,,0.02,fowsr,2014-02-26 21:35:00,
2014-02-26 16:40:00,34.5,19.7,29.60,SE,135,3.8,6.0,42,0.00,,,0.02,fowsr,2014-02-26 21:40:00,
2014-02-26 16:45:00,34.0,18.0,29.61,SSE,157,3.1,5.4,39,0.00,,,0.02,fowsr,2014-02-26 21:45:00,
2014-02-26 16:50:00,33.8,18.3,29.60,SE,135,1.6,3.1,40,0.00,,,0.02,fowsr,2014-02-26 21:50:00,
2014-02-26 16:55:00,33.8,18.3,29.60,SE,135,4.5,10.7,40,0.00,,,0.02,fowsr,2014-02-26 21:55:00,
2014-02-26 17:00:00,33.4,18.0,29.60,SW,225,2.2,4.5,40,0.00,,,0.02,fowsr,2014-02-26 22:00:00,
2014-02-26 17:05:00,33.1,17.6,29.60,South,180,2.2,3.8,40,0.00,,,0.02,fowsr,2014-02-26 22:05:00,
2014-02-26 17:10:00,32.7,17.7,29.61,South,180,3.8,8.3,41,0.00,,,0.02,fowsr,2014-02-26 22:10:00,
2014-02-26 17:15:00,32.4,17.0,29.61,SE,135,3.8,12.1,40,0.00,,,0.02,fowsr,2014-02-26 22:15:00,
2014-02-26 17:20:00,32.2,16.4,29.61,South,180,5.4,11.4,39,0.00,,,0.02,fowsr,2014-02-26 22:20:00,
2014-02-26 17:25:00,31.8,16.9,29.61,SW,225,2.2,4.5,41,0.00,,,0.02,fowsr,2014-02-26 22:25:00,
2014-02-26 17:30:00,31.5,15.8,29.62,East,90,5.4,11.4,39,0.00,,,0.02,fowsr,2014-02-26 22:30:00,
2014-02-26 17:35:00,31.1,15.5,29.62,South,180,3.8,5.4,39,0.00,,,0.02,fowsr,2014-02-26 22:35:00,
2014-02-26 17:40:00,30.6,14.6,29.62,South,180,2.2,3.8,38,0.00,,,0.02,fowsr,2014-02-26 22:40:00,
2014-02-26 17:45:00,30.4,14.4,29.62,SE,135,6.9,12.1,38,0.00,,,0.02,fowsr,2014-02-26 22:45:00,
2014-02-26 17:50:00,30.0,14.1,29.62,South,180,6.0,14.5,38,0.00,,,0.02,fowsr,2014-02-26 22:50:00,
2014-02-26 17:55:00,29.8,14.0,29.62,SW,225,3.8,6.9,38,0.00,,,0.02,fowsr,2014-02-26 22:55:00,
2014-02-26 18:05:00,29.5,13.7,29.62,SE,135,4.5,10.7,38,0.00,,,0.02,fowsr,2014-02-26 23:05:00,
2014-02-26 18:10:00,29.5,13.2,29.62,NW,315,3.8,6.0,37,0.00,,,0.02,fowsr,2014-02-26 23:10:00,
2014-02-26 18:15:00,29.3,12.7,29.63,SSW,202,2.2,5.4,36,0.00,,,0.02,fowsr,2014-02-26 23:15:00,
2014-02-26 18:20:00,29.1,11.2,29.63,South,180,3.1,6.0,33,0.00,,,0.02,fowsr,2014-02-26 23:20:00,
2014-02-26 18:25:00,29.1,12.1,29.63,SW,225,7.6,10.7,35,0.00,,,0.02,fowsr,2014-02-26 23:25:00,
2014-02-26 18:30:00,28.9,11.9,29.63,SW,225,1.6,3.1,35,0.00,,,0.02,fowsr,2014-02-26 23:30:00,
2014-02-26 18:35:00,28.8,11.3,29.62,SE,135,2.2,3.8,34,0.00,,,0.02,fowsr,2014-02-26 23:35:00,
2014-02-26 18:40:00,28.6,11.2,29.63,East,90,1.6,4.5,34,0.00,,,0.02,fowsr,2014-02-26 23:40:00,
2014-02-26 18:45:00,28.4,11.0,29.63,SW,225,3.8,6.9,34,0.00,,,0.02,fowsr,2014-02-26 23:45:00,
2014-02-26 18:50:00,28.2,9.0,29.63,East,90,2.2,3.8,30,0.00,,,0.02,fowsr,2014-02-26 23:50:00,
2014-02-26 18:55:00,28.0,9.3,29.64,SW,225,4.5,8.3,31,0.00,,,0.02,fowsr,2014-02-26 23:55:00,
2014-02-26 19:00:00,27.9,8.7,29.64,South,180,5.4,6.9,30,0.00,,,0.02,fowsr,2014-02-27 00:00:00,
2014-02-26 19:05:00,27.9,8.7,29.64,SSW,202,10.7,15.2,30,0.00,,,0.02,fowsr,2014-02-27 00:05:00,
2014-02-26 19:10:00,27.7,9.5,29.64,South,180,7.6,10.7,32,0.00,,,0.02,fowsr,2014-02-27 00:10:00,
2014-02-26 19:15:00,27.5,8.8,29.64,SW,225,3.8,7.6,31,0.00,,,0.02,fowsr,2014-02-27 00:15:00,
2014-02-26 19:20:00,27.3,8.7,29.64,SW,225,3.8,9.8,31,0.00,,,0.02,fowsr,2014-02-27 00:20:00,
2014-02-26 19:25:00,27.3,7.7,29.64,North,0,3.8,9.2,29,0.00,,,0.02,fowsr,2014-02-27 00:25:00,
2014-02-26 19:30:00,27.1,7.6,29.64,South,180,2.2,4.5,29,0.00,,,0.02,fowsr,2014-02-27 00:30:00,
2014-02-26 19:35:00,27.0,6.4,29.64,SSW,202,3.8,8.3,27,0.00,,,0.02,fowsr,2014-02-27 00:35:00,
2014-02-26 19:40:00,27.0,6.4,29.65,South,180,4.5,9.2,27,0.00,,,0.02,fowsr,2014-02-27 00:40:00,
2014-02-26 19:45:00,27.0,6.4,29.65,South,180,3.8,6.9,27,0.00,,,0.02,fowsr,2014-02-27 00:45:00,
2014-02-26 19:50:00,27.0,6.4,29.65,SSE,157,5.4,6.9,27,0.00,,,0.02,fowsr,2014-02-27 00:50:00,
2014-02-26 19:55:00,26.8,6.7,29.65,SE,135,3.1,6.9,28,0.00,,,0.02,fowsr,2014-02-27 00:55:00,
2014-02-26 20:00:00,26.8,7.2,29.65,SW,225,3.8,7.6,29,0.00,,,0.02,fowsr,2014-02-27 01:00:00,
2014-02-26 20:05:00,26.6,6.6,29.65,NE,45,1.6,2.2,28,0.00,,,0.02,fowsr,2014-02-27 01:05:00,
2014-02-26 20:10:00,26.6,7.1,29.65,South,180,3.1,8.3,29,0.00,,,0.02,fowsr,2014-02-27 01:10:00,
2014-02-26 20:15:00,26.4,7.4,29.65,SW,225,2.2,7.6,30,0.00,,,0.02,fowsr,2014-02-27 01:15:00,
2014-02-26 20:20:00,26.4,6.9,29.65,South,180,6.9,13.0,29,0.00,,,0.02,fowsr,2014-02-27 01:20:00,
2014-02-26 20:25:00,26.4,6.4,29.65,South,180,3.1,6.0,28,0.00,,,0.02,fowsr,2014-02-27 01:25:00,
2014-02-26 20:30:00,26.4,6.4,29.65,SE,135,4.5,7.6,28,0.00,,,0.02,fowsr,2014-02-27 01:30:00,
2014-02-26 20:35:00,26.2,6.3,29.66,SE,135,6.9,12.1,28,0.00,,,0.02,fowsr,2014-02-27 01:35:00,
2014-02-26 20:40:00,26.2,6.3,29.66,SW,225,3.8,6.9,28,0.00,,,0.02,fowsr,2014-02-27 01:40:00,
2014-02-26 20:45:00,26.2,5.7,29.66,South,180,6.0,9.8,27,0.00,,,0.02,fowsr,2014-02-27 01:45:00,
2014-02-26 20:50:00,26.1,5.0,29.66,North,0,3.8,6.0,26,0.00,,,0.02,fowsr,2014-02-27 01:50:00,
2014-02-26 20:55:00,26.1,4.5,29.66,South,180,4.5,6.9,25,0.00,,,0.02,fowsr,2014-02-27 01:55:00,
2014-02-26 21:00:00,26.1,4.5,29.66,SSW,202,5.4,9.2,25,0.00,,,0.02,fowsr,2014-02-27 02:00:00,
2014-02-26 21:05:00,25.9,4.3,29.67,South,180,5.4,6.9,25,0.00,,,0.02,fowsr,2014-02-27 02:05:00,
2014-02-26 21:10:00,25.9,4.3,29.66,SW,225,6.9,8.3,25,0.00,,,0.02,fowsr,2014-02-27 02:10:00,
2014-02-26 21:15:00,25.9,4.3,29.66,SSW,202,5.4,8.3,25,0.00,,,0.02,fowsr,2014-02-27 02:15:00,
2014-02-26 21:20:00,25.9,3.8,29.67,South,180,6.9,8.3,24,0.00,,,0.02,fowsr,2014-02-27 02:20:00,
2014-02-26 21:25:00,25.9,3.8,29.67,South,180,3.1,4.5,24,0.00,,,0.02,fowsr,2014-02-27 02:25:00,
2014-02-26 21:30:00,25.9,3.8,29.67,SW,225,5.4,8.3,24,0.00,,,0.02,fowsr,2014-02-27 02:30:00,
2014-02-26 21:35:00,25.9,3.8,29.67,South,180,4.5,7.6,24,0.00,,,0.02,fowsr,2014-02-27 02:35:00,
2014-02-26 21:40:00,25.7,3.6,29.67,NE,45,0.7,2.2,24,0.00,,,0.02,fowsr,2014-02-27 02:40:00,
2014-02-26 21:45:00,25.5,4.0,29.67,SW,225,4.5,6.9,25,0.00,,,0.02,fowsr,2014-02-27 02:45:00,
2014-02-26 21:50:00,25.5,3.5,29.67,South,180,6.9,8.3,24,0.00,,,0.02,fowsr,2014-02-27 02:50:00,
2014-02-26 21:55:00,25.5,3.5,29.67,SW,225,4.5,7.6,24,0.00,,,0.02,fowsr,2014-02-27 02:55:00,
2014-02-26 22:00:00,25.3,3.3,29.66,South,180,4.5,6.0,24,0.00,,,0.02,fowsr,2014-02-27 03:00:00,
2014-02-26 22:05:00,25.3,3.3,29.66,NNW,337,8.3,11.4,24,0.00,,,0.02,fowsr,2014-02-27 03:05:00,
2014-02-26 22:10:00,25.2,3.2,29.66,SW,225,3.1,5.4,24,0.00,,,0.02,fowsr,2014-02-27 03:10:00,
2014-02-26 22:15:00,25.0,3.0,29.66,South,180,1.6,3.1,24,0.00,,,0.02,fowsr,2014-02-27 03:15:00,
2014-02-26 22:20:00,24.8,3.4,29.65,West,270,3.1,4.5,25,0.00,,,0.02,fowsr,2014-02-27 03:20:00,
2014-02-26 22:25:00,24.6,3.8,29.65,South,180,5.4,6.9,26,0.00,,,0.02,fowsr,2014-02-27 03:25:00,
2014-02-26 22:30:00,24.4,4.2,29.65,WSW,247,2.2,3.8,27,0.00,,,0.02,fowsr,2014-02-27 03:30:00,
2014-02-26 22:35:00,24.1,4.4,29.65,South,180,3.1,4.5,28,0.00,,,0.02,fowsr,2014-02-27 03:35:00,
2014-02-26 22:40:00,23.9,4.3,29.65,SW,225,3.1,6.0,28,0.00,,,0.02,fowsr,2014-02-27 03:40:00,
2014-02-26 22:45:00,23.9,4.3,29.65,SW,225,3.1,3.8,28,0.00,,,0.02,fowsr,2014-02-27 03:45:00,
2014-02-26 22:50:00,23.7,4.1,29.65,West,270,3.1,4.5,28,0.00,,,0.02,fowsr,2014-02-27 03:50:00,
2014-02-26 22:55:00,23.5,4.0,29.65,NE,45,0.0,0.7,28,0.00,,,0.02,fowsr,2014-02-27 03:55:00,
2014-02-26 23:00:00,23.4,3.8,29.65,SW,225,1.6,2.2,28,0.00,,,0.02,fowsr,2014-02-27 04:00:00,
2014-02-26 23:05:00,23.2,3.7,29.65,West,270,0.7,1.6,28,0.00,,,0.02,fowsr,2014-02-27 04:05:00,
2014-02-26 23:10:00,23.0,4.0,29.65,SW,225,0.0,0.7,29,0.00,,,0.02,fowsr,2014-02-27 04:10:00,
2014-02-26 23:15:00,22.8,4.3,29.65,South,180,2.2,3.1,30,0.00,,,0.02,fowsr,2014-02-27 04:15:00,
2014-02-26 23:20:00,22.8,3.3,29.65,SE,135,3.1,4.5,28,0.00,,,0.02,fowsr,2014-02-27 04:20:00,
2014-02-26 23:25:00,23.0,2.5,29.65,South,180,3.1,5.4,26,0.00,,,0.02,fowsr,2014-02-27 04:25:00,
2014-02-26 23:30:00,23.0,2.5,29.65,SW,225,3.1,4.5,26,0.00,,,0.02,fowsr,2014-02-27 04:30:00,
2014-02-26 23:35:00,23.0,2.5,29.65,South,180,2.2,3.8,26,0.00,,,0.02,fowsr,2014-02-27 04:35:00,
2014-02-26 23:40:00,22.8,2.8,29.65,South,180,1.6,2.2,27,0.00,,,0.02,fowsr,2014-02-27 04:40:00,
2014-02-26 23:45:00,22.6,2.7,29.64,South,180,0.7,1.6,27,0.00,,,0.02,fowsr,2014-02-27 04:45:00,
2014-02-26 23:50:00,22.5,2.5,29.64,West,270,0.7,2.2,27,0.00,,,0.02,fowsr,2014-02-27 04:50:00,
2014-02-26 23:55:00,22.1,2.7,29.65,West,270,0.0,0.7,28,0.00,,,0.02,fowsr,2014-02-27 04:55:00,